�N����,����,�~����,�C��,���x,�C��,����,���ϕ���,�ő�u�ԕ���,�ő厞����,���˗�,�I�_���x,�n�����x,�ő啗���N��,DTYPE
"19/06/09","00:10",0.0,17.9,84.1,1001.7,301.0,1.6,3.1,323.9,0.00,15.2,20.6,"00:07:52",1
"19/06/09","00:20",0.0,17.9,84.1,1001.5,317.7,1.8,3.5,321.6,0.00,15.2,20.4,"00:13:36",1
"19/06/09","00:30",0.0,17.9,84.0,1001.9,315.7,2.2,4.4,321.8,0.00,15.2,20.3,"00:20:24",1
"19/06/09","00:40",0.0,17.8,84.1,1001.7,301.1,1.2,2.1,314.5,0.00,15.1,20.3,"00:36:00",1
"19/06/09","00:50",0.0,17.8,84.1,1001.5,310.3,1.5,2.7,326.6,0.00,15.1,20.5,"00:44:40",1
"19/06/09","01:00",0.0,17.8,84.0,1001.5,317.4,2.0,4.2,339.1,0.00,15.1,20.5,"00:58:00",1
"19/06/09","01:10",0.0,17.8,83.7,1001.7,318.0,2.2,4.5,350.3,0.00,15.0,20.2,"01:09:20",1
"19/06/09","01:20",0.0,17.8,83.5,1001.7,316.2,2.0,5.1,335.4,0.00,15.0,20.2,"01:18:40",1
"19/06/09","01:30",0.0,17.7,83.5,1001.5,326.0,2.5,4.9,334.6,0.00,14.9,20.2,"01:26:56",1
"19/06/09","01:40",0.0,17.7,83.5,1001.0,319.3,2.3,4.0,335.8,0.00,14.9,20.2,"01:32:40",1
"19/06/09","01:50",0.0,17.6,83.6,1001.2,320.2,1.8,3.2,327.3,0.00,14.8,20.2,"01:47:36",1
"19/06/09","02:00",0.0,17.6,83.7,1001.2,325.2,2.6,4.8,330.6,0.00,14.9,20.2,"01:53:12",1
"19/06/09","02:10",0.0,17.6,83.6,1001.2,323.7,2.5,3.9,321.0,0.00,14.8,20.1,"02:00:16",1
"19/06/09","02:20",0.0,17.6,83.5,1000.8,317.2,1.7,3.1,334.2,0.00,14.8,20.0,"02:19:44",1
"19/06/09","02:30",0.0,17.5,83.5,1001.0,318.9,2.2,4.0,326.8,0.00,14.7,20.2,"02:23:12",1
"19/06/09","02:40",0.0,17.5,83.8,1000.8,313.6,1.7,3.3,322.9,0.00,14.8,20.0,"02:39:12",1
"19/06/09","02:50",0.0,17.5,83.7,1001.0,320.3,2.0,4.3,324.1,0.00,14.8,20.1,"02:41:20",1
"19/06/09","03:00",0.0,17.4,83.6,1000.5,309.9,1.8,3.3,326.0,0.00,14.6,20.0,"02:56:24",1
"19/06/09","03:10",0.0,17.4,83.8,1000.8,325.5,2.0,2.9,338.9,0.00,14.7,20.1,"03:03:04",1
"19/06/09","03:20",0.0,17.2,84.1,1001.2,299.8,1.3,2.6,329.1,0.00,14.5,19.8,"03:10:48",1
"19/06/09","03:30",0.0,17.1,84.8,1000.8,319.6,1.7,3.3,334.7,0.00,14.6,19.9,"03:27:36",1
"19/06/09","03:40",0.0,17.1,85.1,1001.5,323.0,2.0,3.1,329.3,0.00,14.6,20.0,"03:34:00",1
"19/06/09","03:50",0.0,16.9,85.5,1001.2,314.6,1.8,4.1,333.0,0.00,14.5,20.0,"03:48:48",1
"19/06/09","04:00",0.0,16.9,85.6,1001.2,327.6,2.3,3.7,329.4,0.00,14.5,19.7,"03:50:02",1
"19/06/09","04:10",0.0,16.8,86.0,1001.2,329.7,2.3,3.5,328.5,0.00,14.5,19.7,"04:09:52",1
"19/06/09","04:20",0.0,16.8,86.4,1001.2,328.7,2.0,2.9,322.7,0.00,14.6,19.7,"04:11:28",1
"19/06/09","04:30",0.0,16.7,86.7,1001.2,325.7,1.6,2.6,309.4,0.00,14.5,19.6,"04:24:48",1
"19/06/09","04:40",0.0,16.5,87.1,1001.5,333.5,0.8,1.7,338.1,0.00,14.4,19.6,"04:31:12",1
"19/06/09","04:50",0.0,16.3,87.8,1001.2,329.7,0.8,1.2,343.0,0.00,14.3,19.6,"04:46:40",1
"19/06/09","05:00",0.0,16.0,88.2,1001.7,294.8,1.0,1.3,324.4,0.00,14.1,19.7,"04:50:08",1
"19/06/09","05:10",0.0,16.0,89.0,1001.5,319.1,1.0,1.9,327.8,0.00,14.2,19.6,"05:07:12",1
"19/06/09","05:20",0.0,16.0,89.5,1001.2,323.2,0.8,1.3,324.6,0.00,14.3,19.6,"05:10:48",1
"19/06/09","05:30",0.0,15.9,89.6,1001.5,321.8,1.3,2.0,315.4,0.00,14.2,19.5,"05:28:08",1
"19/06/09","05:40",0.0,15.6,89.7,1001.5,300.0,1.0,1.6,324.4,0.00,14.0,19.4,"05:36:40",1
"19/06/09","05:50",0.0,15.7,90.5,1001.2,335.1,1.3,2.2,337.2,0.00,14.2,19.5,"05:49:52",1
"19/06/09","06:00",0.0,15.7,90.4,1000.8,328.6,1.2,2.1,337.4,0.00,14.2,19.4,"05:50:02",1
"19/06/09","06:10",0.0,15.8,90.5,1001.2,295.6,1.3,2.4,320.5,0.01,14.3,19.4,"06:00:40",1
"19/06/09","06:20",0.0,16.0,90.7,1001.2,291.4,1.0,1.8,337.3,0.02,14.5,19.3,"06:18:00",1
"19/06/09","06:30",0.0,16.4,90.8,1001.2,330.0,1.3,2.2,332.5,0.03,14.9,19.3,"06:26:40",1
"19/06/09","06:40",0.0,16.7,90.1,1001.0,325.3,1.7,3.1,335.2,0.04,15.1,19.4,"06:36:48",1
"19/06/09","06:50",0.0,17.1,89.2,1001.2,307.5,1.3,2.6,307.8,0.04,15.3,19.5,"06:44:40",1
"19/06/09","07:00",0.0,17.3,88.0,1001.7,314.5,1.3,2.8,280.4,0.02,15.3,19.3,"06:52:48",1
"19/06/09","07:10",0.0,17.5,87.3,1002.2,308.6,1.6,3.1,322.6,0.02,15.4,19.3,"07:08:08",1
"19/06/09","07:20",0.0,18.3,85.8,1001.7,311.3,1.3,2.9,326.2,0.07,15.9,19.5,"07:17:04",1
"19/06/09","07:30",0.0,18.3,84.0,1001.5,327.5,2.0,3.7,313.2,0.10,15.6,19.4,"07:25:28",1
"19/06/09","07:40",0.0,19.1,81.8,1001.7,327.2,2.1,3.1,321.5,0.15,16.0,19.7,"07:35:12",1
"19/06/09","07:50",0.0,19.5,78.1,1001.2,331.7,2.2,4.7,344.3,0.17,15.6,19.6,"07:48:40",1
"19/06/09","08:00",0.0,20.2,75.1,1001.0,349.9,1.5,2.9,337.4,0.20,15.7,19.7,"07:51:44",1
"19/06/09","08:10",0.0,20.6,75.3,1001.0,354.8,1.1,2.7,332.8,0.19,16.1,19.9,"08:05:04",1
"19/06/09","08:20",0.0,20.5,74.0,1001.2,346.7,1.3,2.5,356.3,0.19,15.7,20.0,"08:16:56",1
"19/06/09","08:30",0.0,20.3,73.2,1001.5,329.2,1.5,3.6,342.8,0.18,15.4,20.0,"08:20:48",1
"19/06/09","08:40",0.0,20.3,74.0,1001.0,340.7,1.6,3.3,339.3,0.15,15.6,20.1,"08:34:40",1
"19/06/09","08:50",0.0,20.5,72.5,1001.0,341.8,1.6,3.2,344.5,0.24,15.4,20.1,"08:41:28",1
"19/06/09","09:00",0.0,20.8,73.7,1000.8,6.4,1.5,3.3,345.0,0.17,16.0,20.3,"08:53:12",1
"19/06/09","09:10",0.0,20.5,73.3,1000.8,330.7,1.7,3.2,345.5,0.15,15.6,20.5,"09:00:32",1
"19/06/09","09:20",0.0,21.1,71.7,1000.5,5.2,1.5,2.9,339.7,0.25,15.8,20.5,"09:10:24",1
"19/06/09","09:30",0.0,21.5,71.7,1000.5,335.2,1.5,4.0,339.8,0.27,16.2,20.8,"09:28:32",1
"19/06/09","09:40",0.0,21.3,71.5,1000.5,342.9,1.0,2.8,352.7,0.22,16.0,20.7,"09:36:56",1
"19/06/09","09:50",0.0,21.5,71.1,1000.0,12.8,1.0,3.1,347.7,0.24,16.1,20.9,"09:42:16",1
"19/06/09","10:00",0.0,21.4,69.2,1000.5,338.6,0.8,3.4,341.7,0.29,15.6,20.9,"09:52:00",1
"19/06/09","10:10",0.0,22.0,69.4,1000.0,304.4,1.2,2.2,328.8,0.30,16.2,21.1,"10:05:12",1
"19/06/09","10:20",0.0,22.6,69.4,999.8,293.8,1.0,2.7,344.2,0.28,16.8,21.0,"10:10:16",1
"19/06/09","10:30",0.0,22.6,69.3,999.6,210.1,0.8,2.2,222.7,0.34,16.7,21.3,"10:29:52",1
"19/06/09","10:40",0.0,22.5,66.6,999.6,331.7,1.0,2.8,228.1,0.41,16.0,21.4,"10:30:08",1
"19/06/09","10:50",0.0,22.2,68.6,999.1,297.0,1.2,3.1,203.3,0.29,16.2,21.5,"10:48:08",1
"19/06/09","11:00",0.0,23.0,66.8,998.9,275.3,0.8,2.4,241.1,0.28,16.5,21.6,"10:54:24",1
"19/06/09","11:10",0.0,22.9,65.6,998.9,67.9,1.0,2.4,68.7,0.26,16.2,21.8,"11:00:24",1
"19/06/09","11:20",0.0,23.1,64.9,998.6,64.2,0.8,1.9,77.3,0.23,16.2,21.8,"11:18:16",1
"19/06/09","11:30",0.0,23.1,65.8,999.1,350.0,1.0,2.1,17.3,0.23,16.4,22.0,"11:21:12",1
"19/06/09","11:40",0.0,23.8,64.0,998.4,70.9,0.8,2.6,152.2,0.35,16.6,22.2,"11:35:04",1
"19/06/09","11:50",0.0,23.1,65.7,998.6,114.4,1.0,2.9,136.5,0.28,16.4,22.2,"11:43:20",1
"19/06/09","12:00",0.0,23.6,64.1,998.2,146.3,0.8,2.2,91.7,0.31,16.5,22.3,"11:58:16",1
"19/06/09","12:10",0.0,24.3,63.0,997.9,354.7,0.7,1.4,338.3,0.38,16.9,22.6,"12:02:56",1
"19/06/09","12:20",0.0,24.4,62.2,998.2,58.0,1.1,2.9,59.5,0.55,16.7,22.7,"12:11:36",1
"19/06/09","12:30",0.0,25.4,61.3,998.2,90.6,1.0,2.1,352.5,0.67,17.5,22.9,"12:24:00",1
"19/06/09","12:40",0.0,25.2,61.2,998.4,153.7,1.0,3.3,145.1,0.62,17.2,23.5,"12:30:32",1
"19/06/09","12:50",0.0,25.6,60.6,998.6,82.9,1.0,2.7,8.4,0.58,17.5,23.2,"12:44:56",1
"19/06/09","13:00",0.0,24.8,62.1,998.6,132.3,1.5,3.3,107.8,0.59,17.1,23.7,"12:52:24",1
"19/06/09","13:10",0.0,24.7,61.8,998.6,176.7,1.8,3.3,143.6,0.35,16.9,23.8,"13:03:36",1
"19/06/09","13:20",0.0,25.5,60.4,997.7,196.6,0.8,2.2,148.5,0.37,17.3,24.0,"13:19:36",1
"19/06/09","13:30",0.0,25.0,64.2,997.9,137.0,1.5,3.3,146.3,0.42,17.8,23.8,"13:23:04",1
"19/06/09","13:40",0.0,24.9,63.2,997.7,106.9,1.6,4.1,125.0,0.26,17.5,23.9,"13:38:24",1
"19/06/09","13:50",0.0,25.5,65.6,997.4,121.0,1.2,2.8,109.5,0.35,18.6,24.0,"13:45:12",1
"19/06/09","14:00",0.0,24.9,65.4,997.2,117.6,1.3,4.0,137.1,0.38,18.0,24.0,"13:59:36",1
"19/06/09","14:10",0.0,24.1,65.8,997.2,120.2,1.5,4.0,170.6,0.27,17.3,23.9,"14:07:28",1
"19/06/09","14:20",0.0,24.9,64.4,997.0,136.1,1.7,5.0,148.0,0.31,17.8,24.0,"14:19:04",1
"19/06/09","14:30",0.0,24.1,65.7,996.7,149.6,1.6,3.9,128.5,0.25,17.3,24.0,"14:20:16",1
"19/06/09","14:40",0.0,24.0,66.8,997.0,121.6,1.5,3.9,81.6,0.17,17.5,23.9,"14:33:12",1
"19/06/09","14:50",0.0,23.7,66.6,997.2,55.0,1.0,2.1,45.3,0.16,17.2,23.7,"14:43:28",1
"19/06/09","15:00",0.0,24.5,66.1,997.0,128.2,1.1,3.9,155.1,0.25,17.8,23.7,"14:56:16",1
"19/06/09","15:10",0.0,24.3,67.1,997.0,119.2,1.2,3.7,154.4,0.16,17.8,23.7,"15:05:36",1
"19/06/09","15:20",0.0,24.1,66.4,997.2,81.6,1.2,2.6,99.7,0.15,17.5,23.8,"15:16:00",1
"19/06/09","15:30",0.0,23.8,67.3,997.2,35.4,1.3,3.6,22.0,0.07,17.4,23.8,"15:28:40",1
"19/06/09","15:40",0.0,23.7,67.8,997.0,33.5,1.3,3.9,34.0,0.06,17.4,23.6,"15:38:08",1
"19/06/09","15:50",0.0,23.4,68.7,997.4,35.5,1.3,4.1,33.3,0.04,17.4,23.7,"15:45:44",1
"19/06/09","16:00",0.0,23.2,69.0,997.4,34.0,1.7,5.0,342.0,0.03,17.2,23.3,"15:50:02",1
"19/06/09","16:10",0.0,23.2,69.8,997.4,85.0,1.2,3.2,7.9,0.02,17.4,23.2,"16:00:08",1
"19/06/09","16:20",0.0,23.1,69.9,997.4,117.6,1.1,3.2,134.5,0.01,17.4,23.3,"16:16:56",1
"19/06/09","16:30",0.0,23.1,69.7,997.9,67.4,1.1,3.1,79.9,0.02,17.3,23.2,"16:24:16",1
"19/06/09","16:40",0.0,23.1,69.5,997.7,66.7,1.3,3.9,36.6,0.03,17.3,23.2,"16:39:20",1
"19/06/09","16:50",0.0,23.1,69.9,997.7,68.5,1.0,2.2,98.9,0.01,17.4,22.9,"16:46:08",1
"19/06/09","17:00",0.0,23.0,70.1,997.2,71.4,1.2,3.1,62.6,0.02,17.3,23.0,"16:56:56",1
"19/06/09","17:10",0.0,22.9,70.3,997.7,64.8,1.5,3.1,44.4,0.04,17.2,23.0,"17:06:32",1
"19/06/09","17:20",0.0,22.9,70.3,997.4,67.4,1.2,3.2,26.6,0.04,17.2,22.9,"17:11:28",1
"19/06/09","17:30",0.0,22.8,70.7,997.7,69.3,1.2,3.3,60.6,0.03,17.2,22.7,"17:28:24",1
"19/06/09","17:40",0.0,22.7,71.2,997.4,65.9,1.2,2.5,102.8,0.02,17.3,22.6,"17:34:48",1
"19/06/09","17:50",0.0,22.6,71.9,997.7,54.5,1.1,2.9,44.6,0.02,17.3,22.6,"17:42:48",1
"19/06/09","18:00",0.0,22.5,72.1,997.4,72.9,1.0,2.7,41.6,0.02,17.3,22.4,"17:59:52",1
"19/06/09","18:10",0.0,22.5,72.3,998.2,15.1,0.8,2.2,38.5,0.01,17.3,22.5,"18:00:08",1
"19/06/09","18:20",0.0,22.5,72.8,997.9,28.2,0.8,2.1,31.3,0.01,17.4,22.5,"18:14:16",1
"19/06/09","18:30",0.0,22.4,73.1,997.9,36.5,0.8,2.4,76.1,0.00,17.4,22.4,"18:28:40",1
"19/06/09","18:40",0.0,22.4,73.1,998.2,51.3,0.8,2.2,82.4,0.00,17.4,22.3,"18:31:44",1
"19/06/09","18:50",0.0,22.3,73.2,998.4,20.5,1.0,2.0,64.6,0.00,17.3,22.4,"18:47:44",1
"19/06/09","19:00",0.0,22.3,73.5,997.7,6.9,1.0,2.6,16.1,0.00,17.4,22.2,"18:59:12",1
"19/06/09","19:10",0.0,22.2,73.6,998.2,54.5,0.8,2.0,56.5,0.00,17.3,22.1,"19:02:16",1
"19/06/09","19:20",0.0,22.0,73.9,998.2,50.5,0.7,1.6,125.5,0.00,17.2,22.2,"19:13:04",1
"19/06/09","19:30",0.0,22.0,74.1,998.4,16.5,0.7,2.1,56.3,0.00,17.2,22.2,"19:21:20",1
"19/06/09","19:40",0.0,21.9,74.4,998.2,2.2,0.8,2.9,49.2,0.00,17.2,22.0,"19:33:12",1
"19/06/09","19:50",0.0,21.9,74.2,998.4,41.0,1.1,2.5,45.8,0.00,17.1,22.2,"19:41:28",1
"19/06/09","20:00",0.0,21.9,74.2,998.4,41.8,0.8,2.0,7.4,0.00,17.1,22.0,"19:50:24",1
"19/06/09","20:10",0.0,21.7,74.6,998.4,42.5,0.7,2.4,35.8,0.00,17.0,22.0,"20:06:56",1
"19/06/09","20:20",0.0,21.6,75.2,998.6,72.4,0.6,1.4,104.3,0.00,17.1,21.8,"20:14:40",1
"19/06/09","20:30",0.0,21.6,75.1,998.4,13.2,0.6,1.4,50.2,0.00,17.0,21.8,"20:29:36",1
"19/06/09","20:40",0.0,21.5,75.3,998.6,15.7,0.6,1.8,3.6,0.00,17.0,21.8,"20:39:52",1
"19/06/09","20:50",0.0,21.4,75.8,998.6,135.0,0.7,2.1,67.7,0.00,17.0,21.6,"20:40:24",1
"19/06/09","21:00",0.0,21.3,76.7,998.4,46.7,0.7,2.1,150.0,0.00,17.1,21.7,"20:59:12",1
"19/06/09","21:10",0.0,21.1,77.9,998.6,58.8,0.6,1.6,107.1,0.00,17.1,21.7,"21:00:24",1
"19/06/09","21:20",0.0,21.1,78.0,998.9,3.4,0.8,2.0,0.2,0.00,17.2,21.6,"21:14:32",1
"19/06/09","21:30",0.0,21.1,78.2,999.1,345.0,0.8,1.6,339.3,0.00,17.2,21.5,"21:23:12",1
"19/06/09","21:40",0.0,20.9,78.2,999.1,39.3,0.6,1.8,136.4,0.00,17.0,21.6,"21:35:36",1
"19/06/09","21:50",0.0,21.0,77.9,999.1,49.4,0.7,1.9,87.0,0.00,17.0,21.5,"21:41:52",1
"19/06/09","22:00",0.0,21.0,77.3,999.1,59.9,0.7,1.8,101.6,0.00,16.9,21.6,"21:55:44",1
"19/06/09","22:10",0.0,21.0,77.1,999.1,27.8,0.6,1.8,89.8,0.00,16.9,21.5,"22:04:56",1
"19/06/09","22:20",0.0,21.1,76.8,999.3,33.3,0.6,2.0,84.5,0.00,16.9,21.5,"22:11:52",1
"19/06/09","22:30",0.0,20.9,77.1,999.1,33.0,0.5,1.4,70.0,0.00,16.8,21.4,"22:20:40",1
"19/06/09","22:40",0.0,20.9,77.5,999.1,353.6,0.5,1.2,130.9,0.00,16.9,21.3,"22:30:32",1
"19/06/09","22:50",0.0,20.9,77.9,998.9,15.3,0.6,1.6,13.8,0.00,16.9,21.5,"22:49:36",1
"19/06/09","23:00",0.0,20.9,77.7,998.6,342.6,1.0,2.0,337.5,0.00,16.9,21.3,"22:53:20",1
"19/06/09","23:10",0.0,20.8,78.0,998.6,336.2,1.0,2.1,351.5,0.00,16.9,21.4,"23:01:20",1
"19/06/09","23:20",0.0,20.8,78.1,998.9,357.2,0.7,1.6,9.2,0.00,16.9,21.4,"23:18:24",1
"19/06/09","23:30",0.0,20.8,78.0,998.9,354.3,0.7,2.2,325.4,0.00,16.9,21.3,"23:29:20",1
"19/06/09","23:40",0.0,20.8,77.8,998.6,16.8,0.7,1.9,111.0,0.00,16.8,21.3,"23:36:56",1
"19/06/09","23:50",0.0,20.8,77.6,998.6,11.5,0.7,1.9,43.0,0.00,16.8,21.2,"23:44:48",1
"19/06/09","24:00",0.0,20.8,77.5,998.4,11.8,0.8,1.7,66.8,0.00,16.8,21.2,"23:52:48",1
